Regional Weather Roundup
Issued by NWS Portland, ME

Home | Current Version | Previous Version | Text Only | Print | Product List | Glossary On
Versions: 1 2 3 4 5 6 7 8 9 10 11 12 13 14 15 16 17 18 19 20 21 22 23 24 25 26 27 28 29 30 31 32 33 34 35 36 37 38 39 40 41 42 43 44 45 46 47 48 49 50
000
ASUS41 KGYX 030910
RWRGYX
WEATHER ROUNDUP FOR MAINE AND NEW HAMPSHIRE
NATIONAL WEATHER SERVICE GRAY ME
500 AM EDT TUE AUG 03 2021

MEZ002-005-006-010-012-015-018-020-021-024-026-027-029-031000-
MAINE

CITY           SKY/WX    TMP DP  RH WIND       PRES   REMARKS
PORTLAND       CLEAR     53  50  89 W7        30.08R
SANFORD        CLEAR     47  47 100 CALM      30.09R
BAR HARBOR     CLEAR     54  53  97 CALM      30.05R
WISCASSET      CLEAR     51  50  96 CALM      30.08R
ROCKLAND       CLEAR     54  54 100 W5        30.07R
FRYEBURG       CLEAR     49  47  93 CALM      30.09R
LEWISTONAUBURN CLEAR     49  49 100 CALM      30.08R
AUGUSTA        CLEAR     57  52  83 CALM      30.06R
WATERVILLE     CLEAR     53  52  96 SW3       30.03R
BANGOR         CLEAR     54  52  93 S5        30.04R
GREENVILLE       N/A     52  46  80 CALM      30.01R
MILLINOCKET    CLEAR     49  47  93 CALM      30.01R
HOULTON        CLEAR     51  48  89 S5        29.96R
PRESQUE ISLE   CLEAR     48  48 100 CALM      29.95R
FRENCHVILLE    PTCLDY    51  45  79 SW7       29.91R
CARIBOU        CLEAR     51  47  86 SW7       29.93R
$$

NHZ002-005-008-009-011-012-014-031000-
NEW HAMPSHIRE

CITY           SKY/WX    TMP DP  RH WIND       PRES   REMARKS
PORTSMOUTH     CLEAR     56  53  89 CALM      30.10R
ROCHESTER      CLEAR     52  50  93 NW6       30.09R
NASHUA         CLEAR     55  55 100 CALM      30.11R
MANCHESTER     CLEAR     57  53  86 CALM      30.08R
CONCORD        CLEAR     50  49  96 CALM      30.11R
PLYMOUTH       FOG       48  47  97 CALM      30.11R VSB 1
LACONIA        CLEAR     53  52  96 CALM      30.10R
BERLIN         FOG       44  42  93 CALM      30.09R VSB 1/4
WHITEFIELD     PTCLDY    42  41  96 CALM      30.10R
JAFFREY        PTCLDY    50  32  50 S3        30.13R
KEENE          FOG       53  53 100 CALM      30.13R VSB 3/4
LEBANON          N/A    N/A N/A N/A MISG      30.11R
MT WASHINGTON  NOT AVBL
$$

VTZ005-007-008-031000-
VERMONT

CITY           SKY/WX    TMP DP  RH WIND       PRES   REMARKS
ST JOHNSBURY     N/A     49  48  97 MISG      30.08R
MONTPELIER     FOG       48  46  93 CALM      30.12S VSB 1/4
BURLINGTON     CLEAR     54  51  90 E5        30.06S
$$

MAZ007-012-024-CTZ003-RIZ002-NYZ038-NYZ072-031000-
SOUTHERN NEW ENGLAND AND NY

CITY           SKY/WX    TMP DP  RH WIND       PRES   REMARKS
BOSTON         PTCLDY    65  55  70 CALM      30.09S
WORCESTER      CLEAR     57  52  83 N3        30.12R
NANTUCKET      PTCLDY    60  60 100 CALM      30.09R FOG
PROVIDENCE     CLEAR     61  56  83 W3        30.10R
HARTFORD       PTCLDY    55  52  89 CALM      30.11R
ALBANY         CLEAR     51  50  96 CALM      30.12R
NEW YORK CITY  MOCLDY    69  55  60 NE5       30.09S
$$

ANZ081-ANZ082-ANZ150-NHZ014-MEZ023>029-031000-
COASTAL MARINE OBSERVATIONS

STATION/POSITION TIME  TEMP    WIND        PRES    WAVE
                       AIR SEA DIR/SP/G            HT/PER
                 (UTC) (F)     (DEG/KT/KT) (MB)    (FT/S)
MOUNT DESERT ROC 0900          250/  9/  9 1017.7R
ISLE OF SHOALS   0800   63     290/  5/  6 1018.0R
JEFFREYS LEDGE   0826      65                N/A     2/ 9
CASHES LEDGE BUO 0850   65 63  240/  4/  4 1019.0R   2/ 9
GEORGES BANK BUO 0850   62 61  290/  4/  6   N/A     5/ 9
$$

.............KEY..............
   WCI - WIND CHILL
   TC  - TEMPERATURE IN CELSIUS
   VSB - VISIBILITY IN MILES
   HX  - HEAT INDEX
   FAIR- INDICATES FEW OR NO CLOUDS BELOW 12,000 FT, WITH NO
         SIGNIFICANT WEATHER AND/OR OBSTRUCTIONS TO VISIBILITY.





USA.gov is the U.S. government's official web portal to all federal, state and local government web resources and services.